This is the latest recevied weather packets stored in our database for station/object BM2MWA-13. If no packets are shown the sender has not sent any weather packets the latest 10 day(s).
| Time | Temp. | Humidity | Pressure | Rain* | Wind** | Luminosity | Snow |
|---|---|---|---|---|---|---|---|
| 1787881024 | 30.56° C | 67% | 996.3 hPa | 0 mm | - | - | - |
| 1787880424 | 30° C | 67% | 996.3 hPa | 0 mm | - | - | - |
| 1787879825 | 30° C | 67% | 996.2 hPa | 0 mm | - | - | - |
| 1787879223 | 29.44° C | 69% | 996 hPa | 0 mm | - | - | - |
| 1787878623 | 29.44° C | 68% | 995.8 hPa | 0 mm | - | - | - |
| 1787878023 | 29.44° C | 69% | 995.9 hPa | 0 mm | - | - | - |
| 1787877424 | 28.89° C | 70% | 995.7 hPa | 0 mm | - | - | - |
| 1787876825 | 29.44° C | 72% | 995.7 hPa | 0 mm | - | - | - |
| 1787876223 | 28.89° C | 72% | 995.7 hPa | 0 mm | - | - | - |
| 1787875623 | 28.89° C | 71% | 995.7 hPa | 0 mm | - | - | - |
| 1787875024 | 28.33° C | 72% | 995.8 hPa | 0 mm | - | - | - |
| 1787874423 | 28.33° C | 73% | 995.6 hPa | 0 mm | - | - | - |
| 1787873823 | 28.33° C | 72% | 995.6 hPa | 0 mm | - | - | - |
| 1787873224 | 28.33° C | 73% | 995.6 hPa | 0 mm | - | - | - |
| 1787872624 | 28.33° C | 73% | 995.6 hPa | 0 mm | - | - | - |
| 1787872023 | 28.33° C | 73% | 995.6 hPa | 0 mm | - | - | - |
| 1787871423 | 28.33° C | 73% | 995.6 hPa | 0 mm | - | - | - |
| 1787870823 | 28.89° C | 71% | 995.5 hPa | 0 mm | - | - | - |
| 1787870224 | 28.89° C | 70% | 995.4 hPa | 0 mm | - | - | - |
| 1787869623 | 29.44° C | 68% | 995.4 hPa | 0 mm | - | - | - |
| 1787869023 | 29.44° C | 68% | 995.2 hPa | 0 mm | - | - | - |
| 1787868424 | 29.44° C | 68% | 995.1 hPa | 0 mm | - | - | - |
| 1787867823 | 29.44° C | 68% | 995.1 hPa | 0 mm | - | - | - |
| 1787867223 | 29.44° C | 68% | 995.1 hPa | 0 mm | - | - | - |
| 1787866623 | 29.44° C | 68% | 995 hPa | 0 mm | - | - | - |
* Rain latest hour (hover to see other rain measurements)
** Current wind speed in m/s (hover to see current wind gust speed)